• In Hungary
  • List of Countries
  • For 7 days
  • Water Temperature
  • Satellite Maps
  • Weather Map
  • News
  • Weather Widgets
  • user-avatar
    Login

    Hourly Weather Cincinnati

    Today, 22 September, Saturday

    Time Temperature Precipitation Wind Pressure Humidity
    00:00 +19°C° 0 mm 4 mps 748 mmHg 87%
    01:00 +18°C° 0 mm 4 mps 748 mmHg 85%
    02:00 +17°C° 0 mm 4 mps 749 mmHg 83%
    03:00 +15°C° 0 mm 4 mps 749 mmHg 82%
    04:00 +15°C° 0 mm 4 mps 749 mmHg 81%
    05:00 +16°C° 0 mm 3 mps 749 mmHg 80%
    06:00 +16°C° 0 mm 3 mps 750 mmHg 79%
    07:00 +16°C° 0 mm 3 mps 750 mmHg 77%
    08:00 +17°C° 0 mm 4 mps 750 mmHg 76%
    09:00 +18°C° 0 mm 4 mps 750 mmHg 75%
    10:00 +18°C° 0 mm 4 mps 750 mmHg 76%
    11:00 +18°C° 0 mm 3 mps 750 mmHg 77%
    12:00 +18°C° 0 mm 3 mps 750 mmHg 78%
    13:00 +18°C° 0.3 mm 3 mps 750 mmHg 81%
    14:00 +17°C° 0.3 mm 3 mps 749 mmHg 84%
    15:00 +17°C° 0.3 mm 3 mps 749 mmHg 87%
    16:00 +17°C° 0.2 mm 3 mps 749 mmHg 88%
    17:00 +16°C° 0.2 mm 2 mps 749 mmHg 89%
    18:00 +16°C° 0.2 mm 2 mps 749 mmHg 90%
    19:00 +16°C° 0 mm 2 mps 749 mmHg 91%
    20:00 +16°C° 0 mm 2 mps 749 mmHg 91%
    21:00 +16°C° 0 mm 2 mps 749 mmHg 91%
    22:00 +15°C° 0 mm 2 mps 749 mmHg 91%
    23:00 +15°C° 0 mm 2 mps 749 mmHg 91%

    Tomorrow, 23 September, Sunday

    Time Temperature Precipitation Wind Pressure Humidity
    00:00 +15°C° 0 mm 2 mps 749 mmHg 91%
    01:00 +15°C° 0 mm 2 mps 748 mmHg 91%
    02:00 +15°C° 0 mm 2 mps 748 mmHg 91%
    03:00 +15°C° 0 mm 2 mps 748 mmHg 92%
    04:00 +14°C° 0 mm 2 mps 748 mmHg 92%
    05:00 +14°C° 0 mm 2 mps 748 mmHg 92%
    06:00 +14°C° 0 mm 2 mps 748 mmHg 92%
    07:00 +16°C° 0 mm 2 mps 749 mmHg 86%
    08:00 +17°C° 0 mm 3 mps 749 mmHg 80%
    09:00 +19°C° 0 mm 3 mps 749 mmHg 74%
    10:00 +20°C° 0 mm 3 mps 749 mmHg 70%
    11:00 +22°C° 0 mm 3 mps 749 mmHg 65%
    12:00 +24°C° 0 mm 3 mps 749 mmHg 61%
    13:00 +24°C° 0 mm 3 mps 748 mmHg 61%
    14:00 +25°C° 0 mm 3 mps 748 mmHg 61%
    15:00 +25°C° 0 mm 2 mps 747 mmHg 62%
    16:00 +23°C° 0 mm 2 mps 747 mmHg 67%
    17:00 +21°C° 0 mm 2 mps 747 mmHg 73%
    18:00 +19°C° 0 mm 2 mps 747 mmHg 78%
    19:00 +18°C° 0 mm 2 mps 748 mmHg 80%
    20:00 +18°C° 0 mm 2 mps 748 mmHg 82%
    21:00 +17°C° 0 mm 2 mps 748 mmHg 83%
    22:00 +17°C° 0 mm 2 mps 748 mmHg 85%
    23:00 +17°C° 0 mm 2 mps 748 mmHg 87%

    Day after tomorrow, 24 September, Monday

    Time Temperature Precipitation Wind Pressure Humidity
    00:00 +16°C° 0 mm 2 mps 748 mmHg 88%
    01:00 +17°C° 0 mm 2 mps 748 mmHg 90%
    02:00 +17°C° 0 mm 2 mps 748 mmHg 91%
    03:00 +17°C° 0 mm 2 mps 748 mmHg 93%
    04:00 +17°C° 0.4 mm 2 mps 748 mmHg 94%
    05:00 +17°C° 0.4 mm 2 mps 748 mmHg 95%
    06:00 +18°C° 0.4 mm 2 mps 748 mmHg 96%
    07:00 +18°C° 0.2 mm 2 mps 748 mmHg 96%
    08:00 +19°C° 0.2 mm 2 mps 748 mmHg 95%
    09:00 +20°C° 0.2 mm 2 mps 749 mmHg 94%
    10:00 +20°C° 2.5 mm 2 mps 748 mmHg 95%
    11:00 +20°C° 2.5 mm 2 mps 748 mmHg 96%
    12:00 +20°C° 2.5 mm 2 mps 748 mmHg 96%
    13:00 +21°C° 0.9 mm 2 mps 748 mmHg 95%
    14:00 +21°C° 0.9 mm 2 mps 747 mmHg 94%
    15:00 +23°C° 0.9 mm 2 mps 747 mmHg 93%
    16:00 +21°C° 0.2 mm 2 mps 746 mmHg 94%
    17:00 +21°C° 0.2 mm 2 mps 746 mmHg 94%
    18:00 +21°C° 0.2 mm 3 mps 746 mmHg 95%
    19:00 +21°C° 0.7 mm 3 mps 747 mmHg 95%
    20:00 +21°C° 0.7 mm 3 mps 747 mmHg 95%
    21:00 +21°C° 0.7 mm 3 mps 747 mmHg 95%
    22:00 +21°C° 1.6 mm 3 mps 747 mmHg 95%
    23:00 +21°C° 1.6 mm 3 mps 747 mmHg 95%

    25 September, Tuesday

    Time Temperature Precipitation Wind Pressure Humidity
    00:00 +21°C° 1.6 mm 3 mps 747 mmHg 95%
    01:00 +21°C° 0.8 mm 3 mps 746 mmHg 96%
    02:00 +20°C° 0.8 mm 3 mps 746 mmHg 96%
    03:00 +20°C° 0.8 mm 3 mps 746 mmHg 96%
    04:00 +20°C° 0.4 mm 3 mps 746 mmHg 96%
    05:00 +20°C° 0.4 mm 3 mps 746 mmHg 95%
    06:00 +20°C° 0.4 mm 3 mps 746 mmHg 95%
    07:00 +21°C° 0.8 mm 4 mps 747 mmHg 94%
    08:00 +21°C° 0.8 mm 4 mps 747 mmHg 93%
    09:00 +22°C° 0.8 mm 4 mps 747 mmHg 93%
    10:00 +22°C° 1.2 mm 4 mps 746 mmHg 92%
    11:00 +23°C° 1.2 mm 4 mps 746 mmHg 92%
    12:00 +23°C° 1.2 mm 4 mps 745 mmHg 92%
    13:00 +23°C° 1.3 mm 4 mps 745 mmHg 92%
    14:00 +23°C° 1.3 mm 4 mps 744 mmHg 93%
    15:00 +24°C° 1.3 mm 3 mps 744 mmHg 93%
    16:00 +23°C° 3.5 mm 4 mps 744 mmHg 94%
    17:00 +23°C° 3.5 mm 4 mps 744 mmHg 94%
    18:00 +22°C° 3.5 mm 4 mps 744 mmHg 95%
    19:00 +22°C° 0.8 mm 4 mps 744 mmHg 95%
    20:00 +22°C° 0.8 mm 4 mps 744 mmHg 94%
    21:00 +22°C° 0.8 mm 4 mps 744 mmHg 94%
    22:00 +22°C° 0.9 mm 4 mps 744 mmHg 95%
    23:00 +22°C° 0.9 mm 3 mps 743 mmHg 95%

    26 September, Wednesday

    Time Temperature Precipitation Wind Pressure Humidity
    00:00 +22°C° 0.9 mm 3 mps 743 mmHg 96%
    01:00 +22°C° 1.2 mm 3 mps 743 mmHg 96%
    02:00 +23°C° 1.2 mm 2 mps 743 mmHg 97%
    03:00 +21°C° 1.2 mm 2 mps 743 mmHg 97%
    04:00 +21°C° 0.2 mm 2 mps 743 mmHg 97%
    05:00 +22°C° 0.2 mm 1 mps 743 mmHg 97%
    06:00 +22°C° 0.2 mm 1 mps 743 mmHg 97%
    07:00 +23°C° 0.1 mm 1 mps 743 mmHg 95%
    08:00 +23°C° 0.1 mm 1 mps 744 mmHg 93%
    09:00 +24°C° 0.1 mm 1 mps 744 mmHg 91%
    10:00 +25°C° 0.4 mm 2 mps 744 mmHg 87%
    11:00 +25°C° 0.4 mm 2 mps 744 mmHg 84%
    12:00 +26°C° 0.4 mm 3 mps 743 mmHg 80%
    13:00 +26°C° 0.5 mm 3 mps 743 mmHg 80%
    14:00 +26°C° 0.5 mm 3 mps 743 mmHg 80%
    15:00 +25°C° 0.5 mm 3 mps 743 mmHg 79%
    16:00 +24°C° 0.2 mm 3 mps 743 mmHg 82%
    17:00 +22°C° 0.2 mm 3 mps 743 mmHg 84%
    18:00 +20°C° 0.2 mm 3 mps 744 mmHg 87%
    19:00 +20°C° 0 mm 3 mps 744 mmHg 87%
    20:00 +19°C° 0 mm 2 mps 744 mmHg 86%
    21:00 +18°C° 0 mm 2 mps 745 mmHg 86%
    22:00 +18°C° 0 mm 3 mps 745 mmHg 86%
    23:00 +17°C° 0 mm 3 mps 744 mmHg 85%

    27 September, Thursday

    Time Temperature Precipitation Wind Pressure Humidity
    00:00 +16°C° 0 mm 3 mps 744 mmHg 84%
    01:00 +16°C° 0 mm 2 mps 744 mmHg 83%
    02:00 +16°C° 0 mm 2 mps 744 mmHg 81%
    03:00 +16°C° 0 mm 2 mps 744 mmHg 80%
    04:00 +16°C° 0 mm 2 mps 744 mmHg 82%
    05:00 +16°C° 0 mm 2 mps 745 mmHg 83%
    06:00 +16°C° 0 mm 2 mps 745 mmHg 85%
    07:00 +19°C° 0 mm 1 mps 745 mmHg 81%
    08:00 +21°C° 0 mm 1 mps 745 mmHg 77%
    09:00 +23°C° 0 mm 1 mps 746 mmHg 73%
    10:00 +24°C° 0 mm 1 mps 745 mmHg 70%
    11:00 +25°C° 0 mm 1 mps 745 mmHg 67%
    12:00 +27°C° 0 mm 1 mps 745 mmHg 64%
    13:00 +27°C° 0 mm 1 mps 745 mmHg 63%
    14:00 +27°C° 0 mm 1 mps 744 mmHg 63%
    15:00 +27°C° 0 mm 2 mps 744 mmHg 62%
    16:00 +25°C° 0 mm 1 mps 744 mmHg 68%
    17:00 +23°C° 0 mm 1 mps 744 mmHg 73%
    18:00 +22°C° 0 mm 1 mps 744 mmHg 79%
    19:00 +21°C° 0 mm 1 mps 745 mmHg 81%
    20:00 +21°C° 0 mm 1 mps 745 mmHg 83%
    21:00 +20°C° 0 mm 1 mps 745 mmHg 84%
    22:00 +20°C° 0 mm 1 mps 746 mmHg 85%
    23:00 +19°C° 0 mm 1 mps 746 mmHg 86%
    Show more